Zurück zum Katalog

IRIDIUM 33 DEB

AktivPO
NORAD 33862·DEBRIS·🇺🇸 United States

Gestartet Sep 14, 1997 von Baikonur Cosmodrome

Loading…

Nächste Überflüge (nächste 24 Stunden)

TLE

AktuellSource: Space-Track

Epoche: Sep 14, 2026, 00:23 UTC

1 33862U 97051AF  26257.01642935  .00001999  00000-0  29458-3 0  9995
2 33862  86.4043 275.5772 0047787 189.0055 201.0314 14.74042394928744

Verfolge IRIDIUM 33 DEB in Echtzeit mit AllMySat

Download on the App Store